Regional Weather Roundup
Issued by NWS

Home | Current Version | Previous Version | Text Only | Print | Product List | Glossary On
Versions: 1 2 3 4 5 6 7 8 9 10 11 12 13 14 15 16 17 18 19 20 21 22 23 24 25 26 27 28 29 30 31 32 33 34 35 36 37 38 39 40 41 42 43 44 45 46 47 48 49 50
000
ASUS44 KOUN 261500
RWROK

WEATHER ROUNDUP FOR OKLAHOMA
NATIONAL WEATHER SERVICE NORMAN OK
1000 AM CDT WED APR 26 2017

NOTE: "FAIR" INDICATES FEW OR NO CLOUDS BELOW 12,000 FEET WITH NO
      SIGNIFICANT WEATHER AND/OR OBSTRUCTIONS TO VISIBILITY.

OKZ001>007-009>012-014-015-017-261600-
NORTHWEST OKLAHOMA AND THE PANHANDLE

CITY           SKY/WX    TMP DP  RH WIND       PRES   REMARKS
GAGE           CLOUDY    45  37  73 N22G30    29.74S
GUYMON         CLOUDY    43  34  70 N26       29.79F WCI  33
$$

OKZ016-021>023-033>039-044-045-261600-
SOUTHWEST OKLAHOMA

CITY           SKY/WX    TMP DP  RH WIND       PRES   REMARKS
LAWTON/REGL    LGT RAIN  50  43  77 N25G35    29.66R
LAWTON/FT SILL CLOUDY    49  44  83 N23G36    29.64R
FREDERICK      CLOUDY    50  43  77 N25G32    29.66R
CLINTON        CLOUDY    44  40  85 N24G31    29.71R WCI  35
HOBART         CLOUDY    47  41  80 N18G25    29.70R
ALTUS AFB      CLOUDY    50  39  67 N16G33    29.68S
$$

OKZ018>020-024>031-261600-
CENTRAL OKLAHOMA

CITY           SKY/WX    TMP DP  RH WIND       PRES   REMARKS
OKLAHOMA CITY  LGT RAIN  45  42  89 N29G35    29.63R
OKC/WILEY POST CLOUDY    45  43  93 N21G31    29.65R
OKC/TINKER AFB CLOUDY    46  41  81 N23       29.62R
STILLWATER     LGT RAIN  45  41  86 N15G22    29.64R
GUTHRIE        LGT RAIN  44  41  89 N10G26    29.64R
$$

OKZ008-013-054>072-261600-
NORTHEAST OKLAHOMA

CITY           SKY/WX    TMP DP  RH WIND       PRES   REMARKS
TULSA          LGT RAIN  48  46  93 N21       29.58S
TULSA/JONES    CLOUDY    49  44  83 N9        29.60R
PONCA CITY     LGT RAIN  45  39  79 N23       29.62F
BARTLESVILLE   CLOUDY    46  40  79 VRB7G20   29.65R
MUSKOGEE       LGT RAIN  50  50 100 NW12      29.61R FOG
$$

OKZ032-040>043-046>053-073>077-261600-
SOUTH CENTRAL/SOUTHEAST OKLAHOMA

CITY           SKY/WX    TMP DP  RH WIND       PRES   REMARKS
MCALESTER      LGT RAIN  52  51  97 N12       29.60R FOG
$$





USA.gov is the U.S. government's official web portal to all federal, state and local government web resources and services.